Flag for Poland Weather past 2 weeks in Koszalin, Poland

Now
67 °F

Clear.


Feels Like: 67 °F
Forecast: 59 / 71 °F
Wind: No wind

Location: Koszalin

Current Time: Jul 30, 2014 at 4:08:34 AM

Latest Report: Jul 30, 2014 at 3:00 AM


Visibility: 6 mi

Pressure: 29.72 "Hg

Humidity: 85%

Dew point: 62 °F

Location of KoszalinLocation

Historic Weather in Koszalin — Graph

°F

Koszalin temperature yesterday

Maximum temperature yesterday: 85 °F (at 12:00 PM)
Minimum temperature yesterday: 64 °F (at 5:00 AM)
Average temperature yesterday: 74 °F

Past Weeks' High & Low Weather Summary

 TemperatureHumidityPressure
High86 °F (Jul 20, 3:00 PM)95% (Jul 22, 5:00 AM)30.22 "Hg (Jul 22, 5:00 AM)
Low53 °F (Jul 18, 5:00 AM)26% (Jul 25, 1:00 PM)29.72 "Hg (Jul 29, 6:00 PM)
Average71 °F65%30.02 "Hg
* Reported Jul 15 2:00 AM — Jul 30 2:00 AM, Koszalin, Weather by CustomWeather, © 2014

Note: Actual official high and low records may vary slightly from our data, if they occured in-between our weather recording intervals... More about our weather records

Advertising

Koszalin weather history for previous 24 hours

 ConditionsComfort  
Time TempWeatherWind HumidityBarometerVisibility
2:00 AM
Jul 30
71 °FClear.1 mph75%29.72 "Hg11 mi
1:00 AM74 °FPassing clouds.2 mph71%29.72 "Hg16 mi
12:00 AM73 °FPassing clouds.1 mph83%29.73 "Hg12 mi
11:00 PM
Jul 29
70 °FPassing clouds.No wind84%29.72 "Hg7 mi
10:00 PM72 °FPassing clouds.No wind77%29.73 "Hg11 mi
9:00 PM74 °FOvercast.1 mph74%29.73 "Hg15 mi
8:00 PM75 °FPartly sunny.2 mph72%29.74 "Hg18 mi
7:00 PM81 °FScattered clouds.3 mph61%29.72 "Hg16 mi
6:00 PM81 °FPassing clouds.3 mph66%29.72 "Hg16 mi
5:00 PM79 °FThunderstorms. Passing clouds.3 mph70%29.74 "Hg14 mi
4:00 PM77 °FThundershowers. Overcast.2 mph76%29.76 "Hg12 mi
3:00 PM76 °FThundershowers. Overcast.3 mph71%29.77 "Hg4 mi
2:00 PM83 °FPartly sunny.5 mph55%29.78 "Hg16 mi
1:00 PM84 °FPartly sunny.3 mph51%29.79 "Hg17 mi
12:00 PM85 °FPartly sunny.2 mph45%29.80 "Hg17 mi
11:00 AM83 °FPartly sunny.3 mph48%29.81 "Hg17 mi
10:00 AM81 °FPartly sunny.2 mph56%29.82 "Hg15 mi
9:00 AM76 °FPartly sunny.1 mph65%29.82 "Hg14 mi
8:00 AM74 °FPartly sunny.1 mph71%29.83 "Hg11 mi
7:00 AM72 °FOvercast.1 mph77%29.83 "Hg11 mi
6:00 AM65 °FPartly sunny.No wind89%29.83 "Hg7 mi
5:00 AM64 °FPassing clouds.1 mph87%29.84 "Hg6 mi
4:00 AM65 °FClear.2 mph86%29.84 "Hg7 mi
Weather by CustomWeather, © 2014

See weather overviewHow to use our weather pages